Year,Month,Day,Hour,Minute,Value (Times are PST for temperature in C)
2013,04,25,00,00,11.10
2013,04,25,00,01,11.00
2013,04,25,00,02,10.90
2013,04,25,00,03,10.90
2013,04,25,00,04,10.90
2013,04,25,00,05,10.80
2013,04,25,00,06,10.80
2013,04,25,00,07,10.70
2013,04,25,00,08,10.70
2013,04,25,00,09,10.60
2013,04,25,00,10,10.60
2013,04,25,00,11,10.60
2013,04,25,00,12,10.60
2013,04,25,00,13,10.60
2013,04,25,00,14,10.50
2013,04,25,00,15,10.50
2013,04,25,00,16,10.50
2013,04,25,00,17,10.50
2013,04,25,00,18,10.50
2013,04,25,00,19,10.50
2013,04,25,00,20,10.50
2013,04,25,00,21,10.50
2013,04,25,00,22,10.50
2013,04,25,00,23,10.40
2013,04,25,00,24,10.40
2013,04,25,00,25,10.30
2013,04,25,00,26,10.30
2013,04,25,00,27,10.20
2013,04,25,00,28,10.20
2013,04,25,00,29,10.20
2013,04,25,00,30,10.20
2013,04,25,00,31,10.20
2013,04,25,00,32,10.20
2013,04,25,00,33,10.20
2013,04,25,00,34,10.20
2013,04,25,00,35,10.20
2013,04,25,00,36,10.20
2013,04,25,00,37,10.30
2013,04,25,00,38,10.30
2013,04,25,00,39,10.30
2013,04,25,00,40,10.30
2013,04,25,00,41,10.30
2013,04,25,00,42,10.40
2013,04,25,00,43,10.40
2013,04,25,00,44,10.40
2013,04,25,00,45,10.40
2013,04,25,00,46,10.40
2013,04,25,00,47,10.40
2013,04,25,00,48,10.40
2013,04,25,00,49,10.40
2013,04,25,00,50,10.40
2013,04,25,00,51,10.40
2013,04,25,00,52,10.40
2013,04,25,00,53,10.30
2013,04,25,00,54,10.30
2013,04,25,00,55,10.20
2013,04,25,00,56,10.20
2013,04,25,00,57,10.20
2013,04,25,00,58,10.20
2013,04,25,00,59,10.10
2013,04,25,01,00,10.10
2013,04,25,01,01,10.10
2013,04,25,01,02,10.10
2013,04,25,01,03,10.10
2013,04,25,01,04,10.10
2013,04,25,01,05,10.10
2013,04,25,01,06,10.10
2013,04,25,01,07,10.10
2013,04,25,01,08,10.10
2013,04,25,01,09,10.10
2013,04,25,01,10,10.20
2013,04,25,01,11,10.20
2013,04,25,01,12,10.20
2013,04,25,01,13,10.20
2013,04,25,01,14,10.20
2013,04,25,01,15,10.20
2013,04,25,01,16,10.20
2013,04,25,01,17,10.20
2013,04,25,01,18,10.20
2013,04,25,01,19,10.20
2013,04,25,01,20,10.20
2013,04,25,01,21,10.20
2013,04,25,01,22,10.20
2013,04,25,01,23,10.20
2013,04,25,01,24,10.20
2013,04,25,01,25,10.20
2013,04,25,01,26,10.20
2013,04,25,01,27,10.30
2013,04,25,01,28,10.30
2013,04,25,01,29,10.30
2013,04,25,01,30,10.30
2013,04,25,01,31,10.30
2013,04,25,01,32,10.30
2013,04,25,01,33,10.30
2013,04,25,01,34,10.30
2013,04,25,01,35,10.30
2013,04,25,01,36,10.30
2013,04,25,01,37,10.30
2013,04,25,01,38,10.30
2013,04,25,01,39,10.30
2013,04,25,01,40,10.30
2013,04,25,01,41,10.20
2013,04,25,01,42,10.20
2013,04,25,01,43,10.20
2013,04,25,01,44,10.10
2013,04,25,01,45,10.10
2013,04,25,01,46,10.00
2013,04,25,01,47,10.00
2013,04,25,01,48,10.00
2013,04,25,01,49,10.00
2013,04,25,01,50,10.10
2013,04,25,01,51,10.10
2013,04,25,01,52,10.20
2013,04,25,01,53,10.20
2013,04,25,01,54,10.20
2013,04,25,01,55,10.20
2013,04,25,01,56,10.10
2013,04,25,01,57,10.10
2013,04,25,01,58,10.10
2013,04,25,01,59,10.10
2013,04,25,02,00,10.10
2013,04,25,02,01,10.20
2013,04,25,02,02,10.20
2013,04,25,02,03,10.20
2013,04,25,02,04,10.20
2013,04,25,02,05,10.30
2013,04,25,02,06,10.30
2013,04,25,02,07,10.20
2013,04,25,02,08,10.20
2013,04,25,02,09,10.10
2013,04,25,02,10,10.10
2013,04,25,02,11,10.00
2013,04,25,02,12,9.90
2013,04,25,02,13,9.90
2013,04,25,02,14,9.90
2013,04,25,02,15,9.90
2013,04,25,02,16,9.90
2013,04,25,02,17,9.80
2013,04,25,02,18,9.80
2013,04,25,02,19,9.80
2013,04,25,02,20,9.70
2013,04,25,02,21,9.60
2013,04,25,02,22,9.60
2013,04,25,02,23,9.50
2013,04,25,02,24,9.40
2013,04,25,02,25,9.40
2013,04,25,02,26,9.30
2013,04,25,02,27,9.30
2013,04,25,02,28,9.30
2013,04,25,02,29,9.20
2013,04,25,02,30,9.20
2013,04,25,02,31,9.20
2013,04,25,02,32,9.20
2013,04,25,02,33,9.20
2013,04,25,02,34,9.20
2013,04,25,02,35,9.20
2013,04,25,02,36,9.20
2013,04,25,02,37,9.20
2013,04,25,02,38,9.20
2013,04,25,02,39,9.20
2013,04,25,02,40,9.20
2013,04,25,02,41,9.10
2013,04,25,02,42,9.10
2013,04,25,02,43,9.10
2013,04,25,02,44,9.10
2013,04,25,02,45,9.10
2013,04,25,02,46,9.00
2013,04,25,02,47,9.00
2013,04,25,02,48,8.90
2013,04,25,02,49,8.90
2013,04,25,02,50,8.90
2013,04,25,02,51,8.80
2013,04,25,02,52,8.80
2013,04,25,02,53,8.80
2013,04,25,02,54,8.80
2013,04,25,02,55,8.80
2013,04,25,02,56,8.80
2013,04,25,02,57,8.70
2013,04,25,02,58,8.70
2013,04,25,02,59,8.70
2013,04,25,03,00,8.70
2013,04,25,03,01,8.70
2013,04,25,03,02,8.60
2013,04,25,03,03,8.60
2013,04,25,03,04,8.60
2013,04,25,03,05,8.60
2013,04,25,03,06,8.50
2013,04,25,03,07,8.50
2013,04,25,03,08,8.50
2013,04,25,03,09,8.40
2013,04,25,03,10,8.40
2013,04,25,03,11,8.40
2013,04,25,03,12,8.40
2013,04,25,03,13,8.40
2013,04,25,03,14,8.30
2013,04,25,03,15,8.30
2013,04,25,03,16,8.30
2013,04,25,03,17,8.30
2013,04,25,03,18,8.30
2013,04,25,03,19,8.30
2013,04,25,03,20,8.20
2013,04,25,03,21,8.20
2013,04,25,03,22,8.20
2013,04,25,03,23,8.20
2013,04,25,03,24,8.20
2013,04,25,03,25,8.10
2013,04,25,03,26,8.10
2013,04,25,03,27,8.00
2013,04,25,03,28,8.00
2013,04,25,03,29,8.00
2013,04,25,03,30,8.00
2013,04,25,03,31,8.00
2013,04,25,03,32,8.00
2013,04,25,03,33,7.90
2013,04,25,03,34,7.90
2013,04,25,03,35,7.90
2013,04,25,03,36,7.90
2013,04,25,03,37,7.90
2013,04,25,03,38,7.90
2013,04,25,03,39,7.90
2013,04,25,03,40,7.80
2013,04,25,03,41,7.80
2013,04,25,03,42,7.80
2013,04,25,03,43,7.80
2013,04,25,03,44,7.80
2013,04,25,03,45,7.70
2013,04,25,03,46,7.70
2013,04,25,03,47,7.70
2013,04,25,03,48,7.70
2013,04,25,03,49,7.70
2013,04,25,03,50,7.70
2013,04,25,03,51,7.70
2013,04,25,03,52,7.70
2013,04,25,03,53,7.70
2013,04,25,03,54,7.60
2013,04,25,03,55,7.60
2013,04,25,03,56,7.60
2013,04,25,03,57,7.60
2013,04,25,03,58,7.60
2013,04,25,03,59,7.60
2013,04,25,04,00,7.60
2013,04,25,04,01,7.60
2013,04,25,04,02,7.60
2013,04,25,04,03,7.50
2013,04,25,04,04,7.50
2013,04,25,04,05,7.50
2013,04,25,04,06,7.50
2013,04,25,04,07,7.50
2013,04,25,04,08,7.50
2013,04,25,04,09,7.50
2013,04,25,04,10,7.50
2013,04,25,04,11,7.50
2013,04,25,04,12,7.50
2013,04,25,04,13,7.50
2013,04,25,04,14,7.50
2013,04,25,04,15,7.50
2013,04,25,04,16,7.50
2013,04,25,04,17,7.50
2013,04,25,04,18,7.50
2013,04,25,04,19,7.50
2013,04,25,04,20,7.50
2013,04,25,04,21,7.40
2013,04,25,04,22,7.40
2013,04,25,04,23,7.40
2013,04,25,04,24,7.30
2013,04,25,04,25,7.30
2013,04,25,04,26,7.30
2013,04,25,04,27,7.30
2013,04,25,04,28,7.30
2013,04,25,04,29,7.30
2013,04,25,04,30,7.30
2013,04,25,04,31,7.30
2013,04,25,04,32,7.30
2013,04,25,04,33,7.30
2013,04,25,04,34,7.20
2013,04,25,04,35,7.20
2013,04,25,04,36,7.20
2013,04,25,04,37,7.20
2013,04,25,04,38,7.20
2013,04,25,04,39,7.20
2013,04,25,04,40,7.20
2013,04,25,04,41,7.20
2013,04,25,04,42,7.20
2013,04,25,04,43,7.20
2013,04,25,04,44,7.20
2013,04,25,04,45,7.10
2013,04,25,04,46,7.10
2013,04,25,04,47,7.10
2013,04,25,04,48,7.10
2013,04,25,04,49,7.10
2013,04,25,04,50,7.00
2013,04,25,04,51,7.00
2013,04,25,04,52,7.00
2013,04,25,04,53,7.00
2013,04,25,04,54,7.00
2013,04,25,04,55,7.00
2013,04,25,04,56,7.00
2013,04,25,04,57,7.00
2013,04,25,04,58,7.00
2013,04,25,04,59,7.00
2013,04,25,05,00,7.00
2013,04,25,05,01,7.00
2013,04,25,05,02,7.10
2013,04,25,05,03,7.10
2013,04,25,05,04,7.10
2013,04,25,05,05,7.00
2013,04,25,05,06,7.00
2013,04,25,05,07,7.00
2013,04,25,05,08,6.90
2013,04,25,05,09,6.90
2013,04,25,05,10,6.90
2013,04,25,05,11,6.80
2013,04,25,05,12,6.80
2013,04,25,05,13,6.80
2013,04,25,05,14,6.80
2013,04,25,05,15,6.80
2013,04,25,05,16,6.80
2013,04,25,05,17,6.70
2013,04,25,05,18,6.70
2013,04,25,05,19,6.70
2013,04,25,05,20,6.70
2013,04,25,05,21,6.70
2013,04,25,05,22,6.70
2013,04,25,05,23,6.70
2013,04,25,05,24,6.70
2013,04,25,05,25,6.70
2013,04,25,05,26,6.70
2013,04,25,05,27,6.70
2013,04,25,05,28,6.70
2013,04,25,05,29,6.70
2013,04,25,05,30,6.70
2013,04,25,05,31,6.70
2013,04,25,05,32,6.70
2013,04,25,05,33,6.70
2013,04,25,05,34,6.70
2013,04,25,05,35,6.60
2013,04,25,05,36,6.60
2013,04,25,05,37,6.60
2013,04,25,05,38,6.60
2013,04,25,05,39,6.70
2013,04,25,05,40,6.80
2013,04,25,05,41,6.90
2013,04,25,05,42,7.00
2013,04,25,05,43,7.10
2013,04,25,05,44,7.20
2013,04,25,05,45,7.20
2013,04,25,05,46,7.20
2013,04,25,05,47,7.30
2013,04,25,05,48,7.30
2013,04,25,05,49,7.40
2013,04,25,05,50,7.40
2013,04,25,05,51,7.30
2013,04,25,05,52,7.30
2013,04,25,05,53,7.30
2013,04,25,05,54,7.30
2013,04,25,05,55,7.30
2013,04,25,05,56,7.30
2013,04,25,05,57,7.30
2013,04,25,05,58,7.30
2013,04,25,05,59,7.30
2013,04,25,06,00,7.30
2013,04,25,06,01,7.30
2013,04,25,06,02,7.30
2013,04,25,06,03,7.40
2013,04,25,06,04,7.40
2013,04,25,06,05,7.40
2013,04,25,06,06,7.30
2013,04,25,06,07,7.30
2013,04,25,06,08,7.30
2013,04,25,06,09,7.30
2013,04,25,06,10,7.30
2013,04,25,06,11,7.20
2013,04,25,06,12,7.20
2013,04,25,06,13,7.20
2013,04,25,06,14,7.20
2013,04,25,06,15,7.20
2013,04,25,06,16,7.20
2013,04,25,06,17,7.20
2013,04,25,06,18,7.20
2013,04,25,06,19,7.20
2013,04,25,06,20,7.20
2013,04,25,06,21,7.20
2013,04,25,06,22,7.20
2013,04,25,06,23,7.20
2013,04,25,06,24,7.30
2013,04,25,06,25,7.30
2013,04,25,06,26,7.40
2013,04,25,06,27,7.50
2013,04,25,06,28,7.60
2013,04,25,06,29,7.60
2013,04,25,06,30,7.70
2013,04,25,06,31,7.80
2013,04,25,06,32,7.80
2013,04,25,06,33,7.90
2013,04,25,06,34,8.00
2013,04,25,06,35,8.00
2013,04,25,06,36,8.10
2013,04,25,06,37,8.20
2013,04,25,06,38,8.20
2013,04,25,06,39,8.20
2013,04,25,06,40,8.20
2013,04,25,06,41,8.20
2013,04,25,06,42,8.20
2013,04,25,06,43,8.20
2013,04,25,06,44,8.20
2013,04,25,06,45,8.30
2013,04,25,06,46,8.30
2013,04,25,06,47,8.30
2013,04,25,06,48,8.40
2013,04,25,06,49,8.40
2013,04,25,06,50,8.40
2013,04,25,06,51,8.50
2013,04,25,06,52,8.50
2013,04,25,06,53,8.50
2013,04,25,06,54,8.50
2013,04,25,06,55,8.50
2013,04,25,06,56,8.50
2013,04,25,06,57,8.60
2013,04,25,06,58,8.60
2013,04,25,06,59,8.70
2013,04,25,07,00,8.70
2013,04,25,07,01,8.70
2013,04,25,07,02,8.70
2013,04,25,07,03,8.70
2013,04,25,07,04,8.70
2013,04,25,07,05,8.70
2013,04,25,07,06,8.70
2013,04,25,07,07,8.70
2013,04,25,07,08,8.70
2013,04,25,07,09,8.70
2013,04,25,07,10,8.70
2013,04,25,07,11,8.70
2013,04,25,07,12,8.70
2013,04,25,07,13,8.80
2013,04,25,07,14,8.80
2013,04,25,07,15,8.80
2013,04,25,07,16,8.90
2013,04,25,07,17,8.90
2013,04,25,07,18,8.90
2013,04,25,07,19,8.90
2013,04,25,07,20,8.90
2013,04,25,07,21,8.90
2013,04,25,07,22,8.90
2013,04,25,07,23,9.00
2013,04,25,07,24,9.00
2013,04,25,07,25,9.00
2013,04,25,07,26,9.00
2013,04,25,07,27,9.10
2013,04,25,07,28,9.10
2013,04,25,07,29,9.10
2013,04,25,07,30,9.20
2013,04,25,07,31,9.20
2013,04,25,07,32,9.20
2013,04,25,07,33,9.20
2013,04,25,07,34,9.20
2013,04,25,07,35,9.20
2013,04,25,07,36,9.20
2013,04,25,07,37,9.20
2013,04,25,07,38,9.20
2013,04,25,07,39,9.10
2013,04,25,07,40,9.10
2013,04,25,07,41,9.10
2013,04,25,07,42,9.10
2013,04,25,07,43,9.10
2013,04,25,07,44,9.10
2013,04,25,07,45,9.10
2013,04,25,07,46,9.10
2013,04,25,07,47,9.10
2013,04,25,07,48,9.10
2013,04,25,07,49,9.10
2013,04,25,07,50,9.10
2013,04,25,07,51,9.10
2013,04,25,07,52,9.10
2013,04,25,07,53,9.10
2013,04,25,07,54,9.10
2013,04,25,07,55,9.10
2013,04,25,07,56,9.10
2013,04,25,07,57,9.10
2013,04,25,07,58,9.10
2013,04,25,07,59,9.10
2013,04,25,08,00,9.10
2013,04,25,08,01,9.10
2013,04,25,08,02,9.10
2013,04,25,08,03,9.10
2013,04,25,08,04,9.10
2013,04,25,08,05,9.20
2013,04,25,08,06,9.20
2013,04,25,08,07,9.20
2013,04,25,08,08,9.30
2013,04,25,08,09,9.30
2013,04,25,08,10,9.30
2013,04,25,08,11,9.30
2013,04,25,08,12,9.40
2013,04,25,08,13,9.40
2013,04,25,08,14,9.40
2013,04,25,08,15,9.40
2013,04,25,08,16,9.40
2013,04,25,08,17,9.50
2013,04,25,08,18,9.50
2013,04,25,08,19,9.60
2013,04,25,08,20,9.60
2013,04,25,08,21,9.60
2013,04,25,08,22,9.60
2013,04,25,08,23,9.60
2013,04,25,08,24,9.70
2013,04,25,08,25,9.70
2013,04,25,08,26,9.70
2013,04,25,08,27,9.70
2013,04,25,08,28,9.70
2013,04,25,08,29,9.80
2013,04,25,08,30,9.80
2013,04,25,08,31,9.80
2013,04,25,08,32,9.80
2013,04,25,08,33,9.80
2013,04,25,08,34,9.80
2013,04,25,08,35,9.90
2013,04,25,08,36,9.90
2013,04,25,08,37,9.90
2013,04,25,08,38,9.90
2013,04,25,08,39,9.90
2013,04,25,08,40,10.00
2013,04,25,08,41,10.00
2013,04,25,08,42,10.00
2013,04,25,08,43,10.10
2013,04,25,08,44,10.10
2013,04,25,08,45,10.10
2013,04,25,08,46,10.10
2013,04,25,08,47,10.20
2013,04,25,08,48,10.20
2013,04,25,08,49,10.20
2013,04,25,08,50,10.20
2013,04,25,08,51,10.20
2013,04,25,08,52,10.20
2013,04,25,08,53,10.20
2013,04,25,08,54,10.20
2013,04,25,08,55,10.20
2013,04,25,08,56,10.20
2013,04,25,08,57,10.20
2013,04,25,08,58,10.20
2013,04,25,08,59,10.20
2013,04,25,09,00,10.30
2013,04,25,09,01,10.30
2013,04,25,09,02,10.30
2013,04,25,09,03,10.30
2013,04,25,09,04,10.40
2013,04,25,09,05,10.40
2013,04,25,09,06,10.40
2013,04,25,09,07,10.50
2013,04,25,09,08,10.50
2013,04,25,09,09,10.50
2013,04,25,09,10,10.60
2013,04,25,09,11,10.60
2013,04,25,09,12,10.60
2013,04,25,09,13,10.60
2013,04,25,09,14,10.60
2013,04,25,09,15,10.70
2013,04,25,09,16,10.70
2013,04,25,09,17,10.70
2013,04,25,09,18,10.70
2013,04,25,09,19,10.70
2013,04,25,09,20,10.70
2013,04,25,09,21,10.70
2013,04,25,09,22,10.70
2013,04,25,09,23,10.70
2013,04,25,09,24,10.70
2013,04,25,09,25,10.70
2013,04,25,09,26,10.80
2013,04,25,09,27,10.80
2013,04,25,09,28,10.80
2013,04,25,09,29,10.80
2013,04,25,09,30,10.80
2013,04,25,09,31,10.80
2013,04,25,09,32,10.80
2013,04,25,09,33,10.80
2013,04,25,09,34,10.80
2013,04,25,09,35,10.90
2013,04,25,09,36,10.90
2013,04,25,09,37,10.90
2013,04,25,09,38,10.90
2013,04,25,09,39,10.90
2013,04,25,09,40,11.00
2013,04,25,09,41,11.00
2013,04,25,09,42,11.00
2013,04,25,09,43,11.10
2013,04,25,09,44,11.10
2013,04,25,09,45,11.10
2013,04,25,09,46,11.20
2013,04,25,09,47,11.20
2013,04,25,09,48,11.30
2013,04,25,09,49,11.30
2013,04,25,09,50,11.40
2013,04,25,09,51,11.40
2013,04,25,09,52,11.40
2013,04,25,09,53,11.30
2013,04,25,09,54,11.30
2013,04,25,09,55,11.20
2013,04,25,09,56,11.20
2013,04,25,09,57,11.20
2013,04,25,09,58,11.20
2013,04,25,09,59,11.20
2013,04,25,10,00,11.20
2013,04,25,10,01,11.30
2013,04,25,10,02,11.30
2013,04,25,10,03,11.30
2013,04,25,10,04,11.30
2013,04,25,10,05,11.30
2013,04,25,10,06,11.40
2013,04,25,10,07,11.40
2013,04,25,10,08,11.40
2013,04,25,10,09,11.40
2013,04,25,10,10,11.40
2013,04,25,10,11,11.40
2013,04,25,10,12,11.40
2013,04,25,10,13,11.40
2013,04,25,10,14,11.40
2013,04,25,10,15,11.40
2013,04,25,10,16,11.40
2013,04,25,10,17,11.40
2013,04,25,10,18,11.40
2013,04,25,10,19,11.40
2013,04,25,10,20,11.40
2013,04,25,10,21,11.40
2013,04,25,10,22,11.40
2013,04,25,10,23,11.40
2013,04,25,10,24,11.50
2013,04,25,10,25,11.50
2013,04,25,10,26,11.60
2013,04,25,10,27,11.60
2013,04,25,10,28,11.70
2013,04,25,10,29,11.70
2013,04,25,10,30,11.80
2013,04,25,10,31,11.80
2013,04,25,10,32,11.80
2013,04,25,10,33,11.90
2013,04,25,10,34,11.90
2013,04,25,10,35,12.00
2013,04,25,10,36,12.00
2013,04,25,10,37,12.00
2013,04,25,10,38,12.00
2013,04,25,10,39,12.00
2013,04,25,10,40,11.90
2013,04,25,10,41,11.90
2013,04,25,10,42,11.90
2013,04,25,10,43,11.90
2013,04,25,10,44,11.90
2013,04,25,10,45,11.90
2013,04,25,10,46,11.80
2013,04,25,10,47,11.80
2013,04,25,10,48,11.80
2013,04,25,10,49,11.90
2013,04,25,10,50,11.90
2013,04,25,10,51,11.90
2013,04,25,10,52,12.00
2013,04,25,10,53,12.00
2013,04,25,10,54,12.10
2013,04,25,10,55,12.10
2013,04,25,10,56,12.10
2013,04,25,10,57,12.10
2013,04,25,10,58,12.20
2013,04,25,10,59,12.20
2013,04,25,11,00,12.20
2013,04,25,11,01,12.20
2013,04,25,11,02,12.20
2013,04,25,11,03,12.30
2013,04,25,11,04,12.30
2013,04,25,11,05,12.30
2013,04,25,11,06,12.30
2013,04,25,11,07,12.40
2013,04,25,11,08,12.40
2013,04,25,11,09,12.50
2013,04,25,11,10,12.50
2013,04,25,11,11,12.50
2013,04,25,11,12,12.50
2013,04,25,11,13,12.50
2013,04,25,11,14,12.50
2013,04,25,11,15,12.50
2013,04,25,11,16,12.50
2013,04,25,11,17,12.50
2013,04,25,11,18,12.50
2013,04,25,11,19,12.60
2013,04,25,11,20,12.60
2013,04,25,11,21,12.60
2013,04,25,11,22,12.60
2013,04,25,11,23,12.60
2013,04,25,11,24,12.60
2013,04,25,11,25,12.60
2013,04,25,11,26,12.60
2013,04,25,11,27,12.60
2013,04,25,11,28,12.70
2013,04,25,11,29,12.70
2013,04,25,11,30,12.70
2013,04,25,11,31,12.80
2013,04,25,11,32,12.80
2013,04,25,11,33,12.80
2013,04,25,11,34,12.80
2013,04,25,11,35,12.90
2013,04,25,11,36,12.90
2013,04,25,11,37,12.90
2013,04,25,11,38,13.00
2013,04,25,11,39,13.00
2013,04,25,11,40,13.10
2013,04,25,11,41,13.10
2013,04,25,11,42,13.10
2013,04,25,11,43,13.10
2013,04,25,11,44,13.20
2013,04,25,11,45,13.20
2013,04,25,11,46,13.20
2013,04,25,11,47,13.20
2013,04,25,11,48,13.30
2013,04,25,11,49,13.40
2013,04,25,11,50,13.40
2013,04,25,11,51,13.50
2013,04,25,11,52,13.50
2013,04,25,11,53,13.40
2013,04,25,11,54,13.40
2013,04,25,11,55,13.30
2013,04,25,11,56,13.30
2013,04,25,11,57,13.30
2013,04,25,11,58,13.30
2013,04,25,11,59,13.30
2013,04,25,12,00,13.30
2013,04,25,12,01,13.30
2013,04,25,12,02,13.30
2013,04,25,12,03,13.30
2013,04,25,12,04,13.40
2013,04,25,12,05,13.40
2013,04,25,12,06,13.40
2013,04,25,12,07,13.40
2013,04,25,12,08,13.50
2013,04,25,12,09,13.50
2013,04,25,12,10,13.60
2013,04,25,12,11,13.60
2013,04,25,12,12,13.70
2013,04,25,12,13,13.70
2013,04,25,12,14,13.80
2013,04,25,12,15,13.80
2013,04,25,12,16,13.90
2013,04,25,12,17,13.90
2013,04,25,12,18,14.00
2013,04,25,12,19,14.00
2013,04,25,12,20,14.00
2013,04,25,12,21,14.00
2013,04,25,12,22,14.00
2013,04,25,12,23,13.90
2013,04,25,12,24,13.80
2013,04,25,12,25,13.80
2013,04,25,12,26,13.80
2013,04,25,12,27,13.90
2013,04,25,12,28,14.00
2013,04,25,12,29,14.00
2013,04,25,12,30,14.10
2013,04,25,12,31,14.20
2013,04,25,12,32,14.30
2013,04,25,12,33,14.30
2013,04,25,12,34,14.40
2013,04,25,12,35,14.40
2013,04,25,12,36,14.50
2013,04,25,12,37,14.60
2013,04,25,12,38,14.60
2013,04,25,12,39,14.60
2013,04,25,12,40,14.70
2013,04,25,12,41,14.70
2013,04,25,12,42,14.70
2013,04,25,12,43,14.80
2013,04,25,12,44,14.90
2013,04,25,12,45,15.00
2013,04,25,12,46,15.00
2013,04,25,12,47,15.00
2013,04,25,12,48,15.00
2013,04,25,12,49,15.00
2013,04,25,12,50,15.00
2013,04,25,12,51,15.00
2013,04,25,12,52,15.00
2013,04,25,12,53,15.00
2013,04,25,12,54,15.00
2013,04,25,12,55,15.00
2013,04,25,12,56,15.00
2013,04,25,12,57,15.00
2013,04,25,12,58,14.90
2013,04,25,12,59,14.90
2013,04,25,13,00,14.90
2013,04,25,13,01,14.90
2013,04,25,13,02,14.90
2013,04,25,13,03,14.90
2013,04,25,13,04,15.00
2013,04,25,13,05,15.00
2013,04,25,13,06,15.00
2013,04,25,13,07,15.00
2013,04,25,13,08,15.00
2013,04,25,13,09,15.00
2013,04,25,13,10,15.00
2013,04,25,13,11,15.00
2013,04,25,13,12,15.00
2013,04,25,13,13,15.10
2013,04,25,13,14,15.10
2013,04,25,13,15,15.10
2013,04,25,13,16,15.10
2013,04,25,13,17,15.10
2013,04,25,13,18,15.00
2013,04,25,13,19,15.00
2013,04,25,13,20,15.00
2013,04,25,13,21,15.10
2013,04,25,13,22,15.20
2013,04,25,13,23,15.20
2013,04,25,13,24,15.40
2013,04,25,13,25,15.40
2013,04,25,13,26,15.40
2013,04,25,13,27,15.40
2013,04,25,13,28,15.40
2013,04,25,13,29,15.40
2013,04,25,13,30,15.30
2013,04,25,13,31,15.20
2013,04,25,13,32,15.20
2013,04,25,13,33,15.20
2013,04,25,13,34,15.10
2013,04,25,13,35,15.00
2013,04,25,13,36,15.00
2013,04,25,13,37,15.00
2013,04,25,13,38,15.00
2013,04,25,13,39,15.00
2013,04,25,13,40,15.00
2013,04,25,13,41,15.00
2013,04,25,13,42,15.10
2013,04,25,13,43,15.20
2013,04,25,13,44,15.10
2013,04,25,13,45,15.20
2013,04,25,13,46,15.10
2013,04,25,13,47,15.10
2013,04,25,13,48,15.10
2013,04,25,13,49,15.20
2013,04,25,13,50,15.30
2013,04,25,13,51,15.40
2013,04,25,13,52,15.40
2013,04,25,13,53,15.50
2013,04,25,13,54,15.60
2013,04,25,13,55,15.70
2013,04,25,13,56,15.70
2013,04,25,13,57,15.80
2013,04,25,13,58,15.70
2013,04,25,13,59,15.70
2013,04,25,14,00,15.70
2013,04,25,14,01,15.80
2013,04,25,14,02,15.80
2013,04,25,14,03,15.80
2013,04,25,14,04,15.80
2013,04,25,14,05,15.70
2013,04,25,14,06,15.70
2013,04,25,14,07,15.70
2013,04,25,14,08,15.80
2013,04,25,14,09,15.90
2013,04,25,14,10,16.00
2013,04,25,14,11,16.00
2013,04,25,14,12,16.10
2013,04,25,14,13,15.90
2013,04,25,14,14,15.80
2013,04,25,14,15,15.80
2013,04,25,14,16,15.80
2013,04,25,14,17,15.70
2013,04,25,14,18,15.50
2013,04,25,14,19,15.40
2013,04,25,14,20,15.40
2013,04,25,14,21,15.50
2013,04,25,14,22,15.50
2013,04,25,14,23,15.50
2013,04,25,14,24,15.60
2013,04,25,14,25,15.60
2013,04,25,14,26,15.60
2013,04,25,14,27,15.60
2013,04,25,14,28,15.60
2013,04,25,14,29,15.60
2013,04,25,14,30,15.60
2013,04,25,14,31,15.50
2013,04,25,14,32,15.50
2013,04,25,14,33,15.50
2013,04,25,14,34,15.50
2013,04,25,14,35,15.50
2013,04,25,14,36,15.60
2013,04,25,14,37,15.60
2013,04,25,14,38,15.60
2013,04,25,14,39,15.70
2013,04,25,14,40,15.70
2013,04,25,14,41,15.60
2013,04,25,14,42,15.60
2013,04,25,14,43,15.70
2013,04,25,14,44,15.60
2013,04,25,14,45,15.70
2013,04,25,14,46,15.60
2013,04,25,14,47,15.50
2013,04,25,14,48,15.40
2013,04,25,14,49,15.50
2013,04,25,14,50,15.60
2013,04,25,14,51,15.60
2013,04,25,14,52,15.60
2013,04,25,14,53,15.60
2013,04,25,14,54,15.60
2013,04,25,14,55,15.60
2013,04,25,14,56,15.60
2013,04,25,14,57,15.70
2013,04,25,14,58,15.80
2013,04,25,14,59,15.80
2013,04,25,15,00,15.80
2013,04,25,15,01,15.80
2013,04,25,15,02,15.80
2013,04,25,15,03,15.70
2013,04,25,15,04,15.60
2013,04,25,15,05,15.60
2013,04,25,15,06,15.50
2013,04,25,15,07,15.50
2013,04,25,15,08,15.60
2013,04,25,15,09,15.60
2013,04,25,15,10,15.60
2013,04,25,15,11,15.60
2013,04,25,15,12,15.70
2013,04,25,15,13,15.70
2013,04,25,15,14,15.70
2013,04,25,15,15,15.60
2013,04,25,15,16,15.50
2013,04,25,15,17,15.40
2013,04,25,15,18,15.40
2013,04,25,15,19,15.50
2013,04,25,15,20,15.60
2013,04,25,15,21,15.60
2013,04,25,15,22,15.60
2013,04,25,15,23,15.70
2013,04,25,15,24,15.80
2013,04,25,15,25,15.80
2013,04,25,15,26,15.80
2013,04,25,15,27,15.80
2013,04,25,15,28,15.80
2013,04,25,15,29,15.70
2013,04,25,15,30,15.80
2013,04,25,15,31,15.80
2013,04,25,15,32,15.80
2013,04,25,15,33,15.80
2013,04,25,15,34,15.80
2013,04,25,15,35,15.70
2013,04,25,15,36,15.70
2013,04,25,15,37,15.70
2013,04,25,15,38,15.70
2013,04,25,15,39,15.70
2013,04,25,15,40,15.70
2013,04,25,15,41,15.80
2013,04,25,15,42,15.90
2013,04,25,15,43,15.90
2013,04,25,15,44,15.90
2013,04,25,15,45,16.00
2013,04,25,15,46,16.00
2013,04,25,15,47,16.10
2013,04,25,15,48,16.20
2013,04,25,15,49,16.20
2013,04,25,15,50,16.20
2013,04,25,15,51,16.20
2013,04,25,15,52,16.20
2013,04,25,15,53,16.10
2013,04,25,15,54,16.20
2013,04,25,15,55,16.20
2013,04,25,15,56,16.20
2013,04,25,15,57,16.30
2013,04,25,15,58,16.30
2013,04,25,15,59,16.30
2013,04,25,16,00,16.30
2013,04,25,16,01,16.40
2013,04,25,16,02,16.40
2013,04,25,16,03,16.40
2013,04,25,16,04,16.40
2013,04,25,16,05,16.40
2013,04,25,16,06,16.40
2013,04,25,16,07,16.40
2013,04,25,16,08,16.30
2013,04,25,16,09,16.20
2013,04,25,16,10,16.20
2013,04,25,16,11,16.20
2013,04,25,16,12,16.20
2013,04,25,16,13,16.30
2013,04,25,16,14,16.30
2013,04,25,16,15,16.30
2013,04,25,16,16,16.30
2013,04,25,16,17,16.20
2013,04,25,16,18,16.10
2013,04,25,16,19,16.00
2013,04,25,16,20,16.00
2013,04,25,16,21,16.10
2013,04,25,16,22,16.10
2013,04,25,16,23,16.10
2013,04,25,16,24,16.10
2013,04,25,16,25,16.10
2013,04,25,16,26,16.10
2013,04,25,16,27,16.10
2013,04,25,16,28,16.20
2013,04,25,16,29,16.00
2013,04,25,16,30,16.00
2013,04,25,16,31,15.90
2013,04,25,16,32,15.80
2013,04,25,16,33,15.80
2013,04,25,16,34,15.70
2013,04,25,16,35,15.60
2013,04,25,16,36,15.60
2013,04,25,16,37,15.60
2013,04,25,16,38,15.70
2013,04,25,16,39,15.80
2013,04,25,16,40,15.90
2013,04,25,16,41,15.90
2013,04,25,16,42,16.00
2013,04,25,16,43,16.00
2013,04,25,16,44,15.90
2013,04,25,16,45,15.80
2013,04,25,16,46,15.70
2013,04,25,16,47,15.50
2013,04,25,16,48,15.50
2013,04,25,16,49,15.40
2013,04,25,16,50,15.20
2013,04,25,16,51,15.20
2013,04,25,16,52,15.20
2013,04,25,16,53,15.10
2013,04,25,16,54,15.00
2013,04,25,16,55,15.00
2013,04,25,16,56,15.00
2013,04,25,16,57,15.00
2013,04,25,16,58,15.00
2013,04,25,16,59,15.10
2013,04,25,17,00,15.20
2013,04,25,17,01,15.40
2013,04,25,17,02,15.50
2013,04,25,17,03,15.60
2013,04,25,17,04,15.70
2013,04,25,17,05,15.90
2013,04,25,17,06,16.00
2013,04,25,17,07,16.10
2013,04,25,17,08,16.20
2013,04,25,17,09,16.30
2013,04,25,17,10,16.30
2013,04,25,17,11,16.50
2013,04,25,17,12,16.60
2013,04,25,17,13,16.60
2013,04,25,17,14,16.50
2013,04,25,17,15,16.50
2013,04,25,17,16,16.40
2013,04,25,17,17,16.50
2013,04,25,17,18,16.50
2013,04,25,17,19,16.50
2013,04,25,17,20,16.40
2013,04,25,17,21,16.40
2013,04,25,17,22,16.30
2013,04,25,17,23,16.20
2013,04,25,17,24,16.20
2013,04,25,17,25,16.20
2013,04,25,17,26,16.10
2013,04,25,17,27,16.10
2013,04,25,17,28,16.10
2013,04,25,17,29,16.10
2013,04,25,17,30,16.20
2013,04,25,17,31,16.20
2013,04,25,17,32,16.20
2013,04,25,17,33,16.10
2013,04,25,17,34,16.10
2013,04,25,17,35,16.10
2013,04,25,17,36,16.10